Norfolk International Airport Airport (ORF)

 

Airport Diagram
Current Weather/Forecast (IFR Conditions)
METAR KORF 211451Z 23009KT 10SM BKN007 BKN015 OVC021 09/08 A3006 RMK AO2 RAB13E36 SLP178 P0000 60000 T00890078 50000
TAF KORF 211419Z 2114/2212 26008KT P6SM -RA OVC007 FM211800 28007KT P6SM -SHRA OVC007 FM212100 02005KT P6SM OVC008 FM220000 05005KT P6SM OVC015

All Charts
General
Chart Name Download
AIRPORT DIAGRAM
TAKEOFF MINIMUMS
ALTERNATE MINIMUMS

Departures
Chart Name Download
KISRR THREE

Arrivals
Chart Name Download
DRONE TWO
DRONE TWO, CONT.1
TERKS TWO

Approaches
Chart Name Download
ILS OR LOC RWY 05
ILS OR LOC RWY 23
RNAV (RNP) Y RWY 05
RNAV (RNP) Y RWY 23
RNAV (GPS) RWY 14
RNAV (GPS) RWY 32
RNAV (GPS) Z RWY 05
RNAV (GPS) Z RWY 23
VOR/DME RWY 32
VOR RWY 14
RIVER VISUAL RWY 05


Inbound Traffic (Arrivals)

No inbound traffic.


Outbound Traffic (Departures)

No outbound traffic.